Nausori, Fiji

1:38 AM +12 on July 22, 2017 (GMT +1200)
Nausori International

Weather History for NFNA - January, 2007

Change the Weather History Date:

Friday, January 5, 2007

  Actual Average Record
Temperature  
Mean Temperature 79 °F -  
Max Temperature 83 °F 87 °F - ()
Min Temperature 75 °F 75 °F - ()
Cooling Degree Days 14    
Growing Degree Days 29 (Base 50)    
Moisture  
Dew Point 77 °F    
Average Humidity 92    
Maximum Humidity 96    
Minimum Humidity 75    
Precipitation  
Precipitation 0.12 in 0.41 in - ()
Sea Level Pressure  
Sea Level Pressure 29.86 in    
Wind  
Wind Speed 9 mph ()    
Max Wind Speed 17 mph    
Max Gust Speed -    
Visibility 12.9 miles    
Events Rain    
T = Trace of Precipitation, MM = Missing Value Source: Averaged Metar Reports

Daily Weather History Graph

Daily Weather History Graph

Search for Another Location

Airport or City:

Trip Planner

Search our weather history database for the weather conditions in past years. The results will help you decide how hot, cold, wet, or windy it might be!

Date:

Astronomy

Jan. 05, 2007 Rise Set
Actual Time 5:35 AM +12 6:45 PM +12
Civil Twilight 5:11 AM +12 7:10 PM +12
Nautical Twilight 4:42 AM +12 7:38 PM +12
Astronomical Twilight 4:13 AM +12 8:07 PM +12
Moon 8:15 PM +12 (1/5) 6:42 AM +12 (1/5)
Length of Visible Light 13h 58m
Length of Day
13h 10m
Full, 98% of the Moon is Illuminated
Jan 5
Full
Jan 12
Last Quarter
Jan 19
New
Jan 26
First Quarter
Feb 2
Full

Hourly Weather History & Observations

Time (+12) Temp. Heat Index Dew Point Humidity Pressure Visibility Wind Dir Wind Speed Gust Speed Precip Events Conditions
12:00 AM 79 °F - 76 °F 90% 29.90 in 12 mi ESE 9.2 mph - - Rain Light Rain Showers
12:00 AM 78.8 °F - 77.0 °F 94% 29.89 in 24.9 mi ESE 9.2 mph - N/A   Overcast
1:00 AM 77.0 °F - 75.2 °F 94% 2.98 in 12.4 mi East 13.8 mph - N/A Rain Light Rain Showers
2:00 AM 77.0 °F - 75.2 °F 94% 29.86 in 24.9 mi ESE 5.8 mph - N/A   Overcast
3:00 AM 78 °F - 77 °F 94% 29.85 in 12 mi ESE 5.8 mph - - Rain Light Rain Showers
3:00 AM 77.0 °F - 75.2 °F 94% 29.83 in 12.4 mi ESE 5.8 mph - N/A Rain Light Rain Showers
4:00 AM 78.8 °F - 77.0 °F 94% 2.98 in 9.3 mi ESE 8.1 mph - N/A Rain Light Rain Showers
5:00 AM 78.8 °F - 77.0 °F 94% 2.98 in 24.9 mi East 9.2 mph - N/A Rain Light Rain Showers
6:00 AM 78 °F - 76 °F 94% 29.88 in 12 mi ESE 9.2 mph - - Rain Light Rain Showers
6:00 AM 78.8 °F - 77.0 °F 94% 2.98 in 12.4 mi ESE 9.2 mph - N/A Rain Light Rain Showers
7:00 AM 78.8 °F - 77.0 °F 94% 2.98 in 12.4 mi East 9.2 mph - N/A Rain Light Rain Showers
8:00 AM 80.6 °F 87.1 °F 77.0 °F 89% 29.86 in 28.0 mi East 8.1 mph - N/A   Overcast
9:00 AM 81 °F - 77 °F 85% 29.88 in 31 mi East 16.1 mph - -   Partly Cloudy
9:00 AM 80.6 °F 87.1 °F 77.0 °F 89% 29.86 in 31.1 mi East 16.1 mph - N/A   Mostly Cloudy
10:00 AM 82.4 °F 90.9 °F 77.0 °F 84% 29.86 in 31.1 mi East 16.1 mph - N/A   Mostly Cloudy
11:00 AM 82.4 °F 90.9 °F 77.0 °F 84% 29.86 in 31.1 mi East 17.3 mph - N/A   Mostly Cloudy
12:00 PM 83 °F - 76 °F 75% 29.86 in 31 mi East 17.3 mph - -   Partly Cloudy
12:00 PM 82.4 °F 90.9 °F 77.0 °F 84% 29.86 in 31.1 mi East 17.3 mph - N/A   Mostly Cloudy
1:00 PM 80.6 °F 87.1 °F 77.0 °F 89% 29.86 in 24.9 mi East 13.8 mph - N/A   Mostly Cloudy
2:00 PM 80.6 °F 88.1 °F 78.8 °F 94% 2.98 in 24.9 mi WNW 5.8 mph - N/A Rain Light Rain Showers
3:00 PM 81 °F - 79 °F 93% 29.84 in 12 mi ENE 17.3 mph - - Rain Light Rain Showers
3:00 PM 80.6 °F 88.1 °F 78.8 °F 94% 29.83 in 24.9 mi ENE 5.8 mph - N/A   Mostly Cloudy
4:00 PM 80.6 °F 88.1 °F 78.8 °F 94% 29.83 in 31.1 mi East 11.5 mph - N/A   Mostly Cloudy
5:00 PM 80.6 °F 88.1 °F 78.8 °F 94% 29.83 in 31.1 mi East 13.8 mph - N/A   Mostly Cloudy
6:00 PM 81 °F - 79 °F 90% 29.86 in 12 mi East 11.5 mph - - Rain Light Rain Showers
6:00 PM 80.6 °F 88.1 °F 78.8 °F 94% 2.98 in 18.6 mi East 11.5 mph - N/A Rain Light Rain Showers
7:00 PM 80.6 °F 88.1 °F 78.8 °F 94% 29.86 in 24.9 mi East 10.4 mph - N/A   Overcast
8:00 PM 80.6 °F 88.1 °F 78.8 °F 94% 29.86 in 24.9 mi East 5.8 mph - N/A   Mostly Cloudy
9:00 PM 80 °F - 79 °F 96% 29.91 in 12 mi East 5.8 mph - -   Partly Cloudy
9:00 PM 80.6 °F 88.1 °F 78.8 °F 94% 29.89 in 24.9 mi East 5.8 mph - N/A   Mostly Cloudy
10:00 PM 80.6 °F 88.1 °F 78.8 °F 94% 2.98 in 18.6 mi East 6.9 mph - N/A Rain Light Rain Showers
11:00 PM 78.8 °F - 77.0 °F 94% 29.92 in 12.4 mi Calm Calm - N/A Rain Light Rain Showers